This is the latest recevied weather packets stored in our database for station/object JH0FOG-13. If no packets are shown the sender has not sent any weather packets the latest 10 day(s).
| Time | Temp. | Humidity | Pressure | Rain* | Wind** | Luminosity | Snow |
|---|---|---|---|---|---|---|---|
| 1777867201 | 14.44° C | 87% | 1002.1 hPa | 0.25 mm | - | - | - |
| 1777864802 | 14.44° C | 89% | 1002 hPa | 0.51 mm | - | - | - |
| 1777840802 | 15.56° C | 94% | 1000.4 hPa | 8.64 mm | - | - | - |
| 1777839602 | 15.56° C | 95% | 999.8 hPa | 10.67 mm | - | - | - |
| 1777801202 | 17.22° C | 79% | 1003.5 hPa | 0 mm | - | - | - |
| 1777800001 | 19.44° C | 70% | 1003.4 hPa | 0 mm | - | - | - |
| 1777798801 | 21.11° C | 53% | 1003.6 hPa | 0 mm | - | - | - |
| 1777797601 | 22.22° C | 48% | 1003.5 hPa | 0 mm | - | - | - |
| 1777796401 | 22.78° C | 47% | 1003.1 hPa | 0 mm | - | - | - |
| 1777795201 | 23.33° C | 47% | 1003.2 hPa | 0 mm | - | - | - |
| 1777794001 | 23.89° C | 47% | 1003.3 hPa | 0 mm | - | - | - |
| 1777792801 | 25° C | 42% | 1003.1 hPa | 0 mm | - | - | - |
| 1777791601 | 25.56° C | 38% | 1002.9 hPa | 0 mm | - | - | - |
| 1777790401 | 26.11° C | 36% | 1002.8 hPa | 0 mm | - | - | - |
| 1777789201 | 26.11° C | 35% | 1002.7 hPa | 0 mm | - | - | - |
| 1777788002 | 26.11° C | 35% | 1002.7 hPa | 0 mm | - | - | - |
| 1777786802 | 26.67° C | 38% | 1002.6 hPa | 0 mm | - | - | - |
| 1777785602 | 27.22° C | 36% | 1002.6 hPa | 0 mm | - | - | - |
| 1777784402 | 27.22° C | 35% | 1003 hPa | 0 mm | - | - | - |
| 1777783202 | 27.22° C | 35% | 1003.5 hPa | 0 mm | - | - | - |
| 1777782002 | 27.78° C | 34% | 1004.1 hPa | 0 mm | - | - | - |
| 1777780802 | 27.78° C | 33% | 1004.4 hPa | 0 mm | - | - | - |
| 1777779602 | 28.33° C | 30% | 1004.8 hPa | 0 mm | - | - | - |
| 1777778402 | 28.89° C | 31% | 1005 hPa | 0 mm | - | - | - |
| 1777777202 | 28.33° C | 30% | 1005.3 hPa | 0 mm | - | - | - |
* Rain latest hour (hover to see other rain measurements)
** Current wind speed in m/s (hover to see current wind gust speed)